Location: Pic du Midi - T1M
(42.9366°N, 0.1426°E)
Time: 11:43:44
(UTC+01:00)

ITAMSAT 1 - Visible Passes

Search period start: 21 September 2021 00:00
Search period end: 01 October 2021 00:00
Orbit: 783 x 797 km, 98.9° (Epoch: 20 September)

Date Brightness Start Highest point End Pass type
(mag) Time Alt. Az. Time Alt. Az. Time Alt. Az.
21 Sep 10.3 20:28:21 10° SW 20:32:10 21° W 20:36:01 10° NW visible
22 Sep 9.2 19:57:40 10° SSW 20:02:27 38° W 20:07:16 10° NNW visible
23 Sep 8.0 19:27:43 10° S 19:32:52 72° WSW 19:38:02 10° NNW visible
24 Sep 10.5 20:40:02 10° SW 20:43:16 17° W 20:46:30 10° NW visible
25 Sep 9.6 20:08:58 10° SSW 20:13:30 31° W 20:18:03 10° NW visible
26 Sep 8.4 19:38:47 10° S 19:43:52 57° W 19:48:57 10° NNW visible
27 Sep 7.6 19:09:11 10° SSE 19:14:21 78° ENE 19:19:31 10° NNW visible
27 Sep 10.6 20:52:00 10° WSW 20:54:22 13° W 20:56:44 10° WNW visible
28 Sep 9.9 20:20:22 10° SSW 20:24:33 25° W 20:28:46 10° NW visible
29 Sep 8.8 19:49:56 10° S 19:54:52 46° W 19:59:50 10° NNW visible
30 Sep 7.7 19:20:09 10° SSE 19:25:19 86° WSW 19:30:30 10° NNW visible
